BAW784 EGLL-ENGM

Flight info

Callsign BAW784
Flight time N/A
Altitude 39000
Route BPK Q295 MATCH P144 SAMHO DCT LARGA DCT INBOB DCT MITSI DCT PIPEX M609 RIPAM
Aircraft A319/M-SDE3FGHIRWY/LB1

Departure

Time N/A
Airport London Heathrow Airport (EGLL)

Arrival

Time 2026-04-30 18:24
Airport Oslo-Gardermoen International Airport (ENGM)
Time Latitude Longitude Altitude Speed Heading
2026-04-30 17:39 57.79270 7.61379 39396 ft 433 kts 32°
2026-04-30 17:42 58.03882 7.93772 39371 ft 433 kts 33°
2026-04-30 17:43 58.16178 8.10160 39363 ft 433 kts 33°
2026-04-30 17:44 58.30871 8.29937 39351 ft 433 kts 33°
2026-04-30 17:47 58.52908 8.59978 39324 ft 434 kts 33°
2026-04-30 17:48 58.69927 8.83507 39303 ft 435 kts 34°
2026-04-30 17:49 58.79655 8.97090 38223 ft 430 kts 34°
2026-04-30 17:50 58.89099 9.10868 35873 ft 429 kts 36°
2026-04-30 17:51 58.96098 9.21665 33768 ft 434 kts 36°
2026-04-30 17:52 59.03131 9.32553 31610 ft 435 kts 36°
2026-04-30 17:53 59.14686 9.50559 28888 ft 422 kts 36°
2026-04-30 17:54 59.23995 9.63712 27060 ft 401 kts 30°
2026-04-30 17:55 59.33221 9.74877 26477 ft 409 kts 21°
2026-04-30 17:56 59.44818 9.81714 25936 ft 450 kts 13°
2026-04-30 17:57 59.53861 9.86725 25540 ft 449 kts 13°
2026-04-30 17:58 59.62600 9.91634 23440 ft 434 kts 13°
2026-04-30 17:59 59.74064 9.98057 20491 ft 422 kts 13°
2026-04-30 18:00 59.84900 10.04155 17610 ft 378 kts 12°
2026-04-30 18:00 59.91830 10.08072 16248 ft 316 kts 12°
2026-04-30 18:01 59.95915 10.10391 15587 ft 300 kts 12°
2026-04-30 18:02 60.01817 10.13774 14549 ft 295 kts 13°
2026-04-30 18:02 60.07768 10.17201 13497 ft 299 kts 12°
2026-04-30 18:03 60.13788 10.20683 12441 ft 302 kts 13°
2026-04-30 18:04 60.19796 10.24170 11628 ft 301 kts 13°
2026-04-30 18:05 60.27831 10.28847 10180 ft 301 kts 13°
2026-04-30 18:06 60.35596 10.34254 9288 ft 283 kts 21°
2026-04-30 18:07 60.42539 10.40571 9278 ft 271 kts 20°
2026-04-30 18:08 60.47678 10.44648 9264 ft 248 kts
2026-04-30 18:09 60.54181 10.46893 9265 ft 233 kts
2026-04-30 18:10 60.60254 10.51284 9276 ft 238 kts 26°
2026-04-30 18:11 60.65955 10.58023 9268 ft 238 kts 28°
2026-04-30 18:11 60.69451 10.65112 9268 ft 243 kts 47°
2026-04-30 18:12 60.72723 10.73062 9254 ft 242 kts 47°
2026-04-30 18:13 60.74558 10.78792 9264 ft 245 kts 63°
2026-04-30 18:13 60.76124 10.87501 9246 ft 248 kts 88°
2026-04-30 18:14 60.73962 10.93896 9251 ft 258 kts 165°
2026-04-30 18:15 60.68719 10.96519 9067 ft 261 kts 169°
2026-04-30 18:15 60.63444 10.99317 8114 ft 263 kts 168°
2026-04-30 18:16 60.59932 11.01220 7509 ft 262 kts 168°
2026-04-30 18:16 60.56423 11.03123 6981 ft 258 kts 168°
2026-04-30 18:17 60.54709 11.04052 6720 ft 256 kts 168°
2026-04-30 18:17 60.52981 11.04988 6441 ft 255 kts 168°
2026-04-30 18:17 60.49586 11.06817 5894 ft 253 kts 168°
2026-04-30 18:18 60.47909 11.07721 5809 ft 243 kts 168°
2026-04-30 18:18 60.46347 11.08810 5586 ft 245 kts 150°
2026-04-30 18:18 60.45099 11.11196 5231 ft 250 kts 130°
2026-04-30 18:18 60.44051 11.13983 4824 ft 250 kts 128°
2026-04-30 18:19 60.43004 11.16737 4441 ft 246 kts 130°
2026-04-30 18:19 60.41929 11.19389 4136 ft 240 kts 131°
2026-04-30 18:19 60.40848 11.21829 4019 ft 228 kts 143°
2026-04-30 18:19 60.39462 11.23069 3950 ft 214 kts 178°
2026-04-30 18:20 60.38005 11.22809 3806 ft 209 kts 197°
2026-04-30 18:20 60.36659 11.21986 3787 ft 197 kts 201°
2026-04-30 18:20 60.35381 11.21121 3750 ft 189 kts 201°
2026-04-30 18:20 60.34140 11.20328 3508 ft 189 kts 199°
2026-04-30 18:21 60.32884 11.19578 3239 ft 188 kts 199°
2026-04-30 18:21 60.31618 11.18852 2973 ft 187 kts 198°
2026-04-30 18:21 60.30402 11.18161 2725 ft 186 kts 198°
2026-04-30 18:21 60.29148 11.17447 2475 ft 184 kts 198°
2026-04-30 18:22 60.27940 11.16756 2241 ft 180 kts 198°
2026-04-30 18:22 60.25678 11.15457 1798 ft 157 kts 198°
2026-04-30 18:22 60.24664 11.14873 1619 ft 148 kts 198°
2026-04-30 18:23 60.23707 11.14321 1431 ft 136 kts 198°
2026-04-30 18:23 60.22846 11.13825 1242 ft 124 kts 198°
2026-04-30 18:23 60.22029 11.13352 1084 ft 119 kts 198°
2026-04-30 18:23 60.21236 11.12894 929 ft 119 kts 197°
2026-04-30 18:24 60.19661 11.11987 684 ft 103 kts 196°
2026-04-30 18:24 60.19188 11.11708 681 ft 60 kts 197°
2026-04-30 18:24 60.18975 11.11584 681 ft 19 kts 195°
2026-04-30 18:25 60.18891 11.11424 681 ft 16 kts 271°
2026-04-30 18:25 60.18895 11.11362 681 ft 0 kts 284°
2026-04-30 18:25 60.18896 11.11362 681 ft 0 kts 284°
2026-04-30 18:26 60.18903 11.11309 681 ft 3 kts 284°
2026-04-30 18:26 60.18911 11.11248 681 ft 5 kts 288°
2026-04-30 18:26 60.18938 11.11191 681 ft 6 kts 346°
2026-04-30 18:27 60.19051 11.11234 681 ft 10 kts 16°
2026-04-30 18:27 60.19125 11.11278 681 ft 12 kts 16°
2026-04-30 18:28 60.19305 11.11381 681 ft 14 kts 16°
2026-04-30 18:28 60.19385 11.11405 681 ft 10 kts 337°
2026-04-30 18:28 60.19440 11.11102 682 ft 8 kts 288°
2026-04-30 18:29 60.19449 11.11041 682 ft 1 kts 287°
2026-04-30 18:29 60.19467 11.10905 682 ft 5 kts 285°
2026-04-30 18:30 60.19472 11.10873 682 ft 1 kts 285°
2026-04-30 18:30 60.19476 11.10842 682 ft 2 kts 285°
2026-04-30 18:31 60.19482 11.10800 682 ft 3 kts 285°
2026-04-30 18:31 60.19431 11.10740 682 ft 6 kts 195°
2026-04-30 18:32 60.19391 11.10733 681 ft 0 kts 181°